Airfield :
LOGIN :

Register | Disclaimer

   EN    FR    IT 

 










Legend :    VFR   Marginal VFR   IFR   Intensive IFR   Very Intensive IFR
Visi :
Ceiling :
>= 8 km
>= 3000ft
5 to 8 km
1000 to 3000 ft
1500m to 5 km
500 to 1000 ft
800 to 1500m
200 to 500 ft
< 800m
< 200 ft
Symbols :   Thunderstorms  Fog  Heavy snow  Heavy precipitations  Wind > 20 kt
SIGMETs :     Misc.  Thunderstorms  Icing  Turbulence  Mountain Waves  Volcanic Ashes







- Airport Elevation : 156 ft
- IATA code : OMO


LQMO - Mostar

CURRENT METAR :
  • 150100Z 14005KT 4000 RA BR FEW008 SCT025 OVC035 04/04 Q1010

EXPIRED METARs :
  • 150000Z VRB01KT 4500 RA BR FEW006 SCT015 OVC030 05/04 Q1010
  • 142300Z 11003KT 6000 RA FEW006 SCT019 OVC036 05/04 Q1010

TAF TAF LQMO
Valid from the 15 at 00:00 until the 16 at 00:00 UTC


142300Z 1500/1524 03005KT 9999 SCT020 BKN035 TX06/1513Z TN03/1506Z
TEMPO 1500/1513 3000 RA BKN013 OVC030
PROB40
TEMPO 1500/1512 3000 TSRA FEW025CB BKN030
PROB40
TEMPO 1512/1524 02015G25KT
No reported NOTAMs for that airfield.



MET'MAP, your aeronautical weather chart ! - Copyright ORBIFLY December 2007 - Disclaimer

ORBIFLY MET'MAP TEAM :

Programming & Development : Alexandra Zaïnal
Concept & Development : Baudouin d'Aumeries
Co-Development & Prog : Marc-Olivier Méhu
Technical & hardware support : Manuel Goepfert

Contact : metmap@orbifly.com




SOURCES & CREDITS :

   NOAA